Regional Weather Roundup
Issued by NWS

Home | Current Version | Previous Version | Text Only | Print | Product List | Glossary On
Versions: 1 2 3 4 5 6 7 8 9 10 11 12 13 14 15 16 17 18 19 20 21 22 23 24 25 26 27 28 29 30 31 32 33 34 35 36 37 38 39 40 41 42 43 44 45 46 47
000
ASUS45 KBOU 221607
RWRCO

WEATHER ROUNDUP FOR COLORADO
NATIONAL WEATHER SERVICE DENVER/BOULDER CO
1000 AM MDT MON SEP 22 2014

NOTE: "FAIR" INDICATES FEW OR NO CLOUDS BELOW 12000 FEET WITH NO
SIGNIFICANT WEATHER AND/OR OBSTRUCTIONS TO VISIBILITY.

COZ001>005-013-030-031-221700-
...NORTHWEST COLORADO...

CITY           SKY/WX    TMP DP  RH WIND       PRES   REMARKS
CRAIG          CLOUDY    56  52  86 SW3       30.31F
HAYDEN         CLOUDY    52  46  82 NW7       30.33S
MEEKER         CLOUDY    54  50  86 E7        30.33S
MOUNT WERNER   NOT AVBL
STEAMBOAT SPGS CLOUDY    51  48  91 SW15G29   30.37R
WALDEN         PTSUNNY   55  45  67 S8        30.35F
$$

COZ006>008-011-221700-
...WEST CENTRAL VALLEYS...

CITY           SKY/WX    TMP DP  RH WIND       PRES   REMARKS
GRAND JUNCTION LGT RAIN  61  59  93 NW3       30.24S
MONTROSE       MOSUNNY   63  59  87 CALM      30.30S
EAGLE          MOSUNNY   57  55  94 W5        30.34S
RIFLE          PTSUNNY   60  54  80 W3        30.27S
DELTA          MOSUNNY   68  60  74 E3        30.26F
NUCLA          MOSUNNY   63  55  77 NW3       30.33F
$$

COZ017>023-064>068-221700-
...SOUTHWEST COLORADO...

CITY           SKY/WX    TMP DP  RH WIND       PRES   REMARKS
DURANGO        CLOUDY    61  57  87 E6        30.37S
CORTEZ         MOSUNNY   66  58  75 VRB6      30.32S
PAGOSA SPRINGS CLOUDY    56  56  99 CALM      30.44S
TELLURIDE      NOT AVBL
WOLF CREEK PAS HVY RAIN  41  41 100 SW16G25   30.63S VSB 1/4
$$

COZ009-010-012-014-032>034-037-058>063-221700-
...CENTRAL COLORADO...

CITY           SKY/WX    TMP DP  RH WIND       PRES   REMARKS
ASPEN          PTSUNNY   56  51  84 S5        30.37S
BUENA VISTA    CLOUDY    55  52  91 E3        30.40F
COPPER MTN     DRIZZLE   45  37  76 SW8G16    30.62R
BERTHOUD PASS  CLOUDY    37  36  93 W14       30.63F
COTTONWOOD PAS CLOUDY    52  48  87 SE6       30.50F FOG
GUNNISON       PTSUNNY   55  50  82 CALM      30.43S
KREMMLING      PTSUNNY   55  48  76 CALM      30.36F
LEADVILLE      LGT RAIN  49  47  93 CALM      30.49R
MONARCH PASS   FOG       41  41 100 SW21      30.72S VSB<1/4
SALIDA         CLOUDY    56  55  94 E3        30.46S
SUNLIGHT       CLOUDY    50  48  93 CALM      30.55R
WILKERSON PASS NOT AVBL
$$

COZ069>075-221700-
...SAN LUIS VALLEY/SANGRE DE CRISTO MOUNTAINS...

CITY           SKY/WX    TMP DP  RH WIND       PRES   REMARKS
ALAMOSA        PTSUNNY   64  49  57 S21G26    30.39S
LA VETA PASS   PTSUNNY   48  43  81 S13G24    30.52R
SAGUACHE       NOT AVBL
$$

COZ035-036-038>040-221700-
...NORTHERN COLORADO FRONT RANGE...

CITY           SKY/WX    TMP DP  RH WIND       PRES   REMARKS
DENVER INTL AP RAIN      60  55  83 SW13      30.24R
DMNS CITY PARK   N/A     58  57  94 E3        30.19F
AURORA         NOT AVBL
FRONT RANGE AP NOT AVBL
ERIE MUNI ARPT NOT AVBL
BOULDER MUN AP CLOUDY    63  54  72 SE3       30.22R
CENTENNIAL     CLOUDY    60  56  86 S3        30.25F
BROOMFIELD     PTSUNNY   59  55  88 CALM      30.23S
FORT COLLINS   PTSUNNY   57  50  77 W5        30.22S
LONGMONT       PTSUNNY   64  51  63 SE6       30.23S HAZE
$$

COZ041-046-047-076>085-087-088-221700-
...PIKES PEAK/PALMER DIVIDE AND SOUTHERN FOOTHILLS...

CITY           SKY/WX    TMP DP  RH WIND       PRES   REMARKS
COLO. SPRINGS  CLOUDY    57  48  72 NW3       30.32R
A. F. ACADEMY  LGT RAIN  56  48  75 SE6       30.33R
ELLICOTT       NOT AVBL
FALCON         CLOUDY    56  49  79 CALM      30.35S
FORT CARSON    CLOUDY    58  48  70 N6        30.29S
LIMON          CLOUDY    61  53  75 S15       30.28R
MONUMENT HILL  CLOUDY    57  50  77 S7        30.32S
TRINIDAD       PTSUNNY   71  55  56 S7        30.28S
$$

COZ042>045-048>051-090-091-221700-
...NORTHEAST COLORADO...

CITY           SKY/WX    TMP DP  RH WIND       PRES   REMARKS
GREELEY ARPT   CLOUDY    61  45  55 CALM      30.20R
AKRON          CLOUDY    58  52  80 S20       30.22R
BURLINGTON     PTSUNNY   69  45  41 S26G37    30.25F
WRAY           CLOUDY    64  46  51 S14G21    30.23R
STERLING       CLOUDY    68  54  60 S17G25    30.19S
HOLYOKE        CLOUDY    64  45  48 S14G22    30.22S
FORT MORGAN    CLOUDY    66  48  51 S15       30.20S
$$

COZ086-089-092>099-221700-
...SOUTHEAST COLORADO...

CITY           SKY/WX    TMP DP  RH WIND       PRES   REMARKS
PUEBLO         CLOUDY    64  50  60 CALM      30.23S
LA JUNTA       PTSUNNY   76  57  51 SE20      30.21F
LAMAR          PTSUNNY   73  53  49 S24G36    30.23F
SPRINGFIELD      N/A     65  49  56 S20G29    30.31S
$$



USA.gov is the U.S. government's official web portal to all federal, state and local government web resources and services.